Skip Page Navigation
NASA JPL Caltech
NASA Logo - Jet Propulsion Laboratory + View the NASA Portal
+ Center for Near-Earth Object Studies
JPL Home Earth Solar System Stars & Galaxies Technology
JPL Solar System Dynamics
BODIES ORBITS EPHEMERIDES TOOLS PHYSICAL DATA DISCOVERY FAQ SITE MAP
IMPORTANT: The SSD Announcement email list is now available. Major changes are coming in the near future, including possible hostname and/or URL changes. To be notified of such changes, subscribe to this email list.

Please visit this page for more details.


JPL Small-Body Database Browser
Search: [ help ]  
47131 (1999 CA133)
Classification: Outer Main-belt Asteroid          SPK-ID: 2047131
Ephemeris | Orbit Diagram | Orbital Elements | Mission Design | Physical Parameters | Discovery Circumstances | Close-Approach Data ]

[ show orbit diagram ]
Orbital Elements at Epoch 2458600.5 (2019-Apr-27.0) TDB
Reference: JPL 23 (heliocentric ecliptic J2000)
 Element Value Uncertainty (1-sigma)   Units 
e .1662045934430029 3.8767e-08  
a 3.209058684706413 2.0458e-08 au
q 2.675698390680046 1.2975e-07 au
i 1.064400117368276 4.9935e-06 deg
node 155.1027341570328 0.00022295 deg
peri 285.6166357439188 0.00022341 deg
M 227.3529284046843 1.5057e-05 deg
tp 2459374.177704179679
(2021-Jun-08.67770418)
9.1369e-05 TDB
period 2099.737070369825
5.75
2.0079e-05
5.497e-08
d
yr
n .1714500377595341 1.6395e-09 deg/d
Q 3.74241897873278 2.3858e-08 au
  Orbit Determination Parameters
   # obs. used (total)      1016  
   data-arc span      9328 days (25.54 yr)  
   first obs. used      1994-04-19  
   last obs. used      2019-11-02  
   planetary ephem.      DE431  
   SB-pert. ephem.      SB431-N16  
   condition code      0  
   norm. resid. RMS      .56884  
   source      ORB  
   producer      Otto Matic  
   solution date      2019-Dec-04 03:23:18  

Additional Information
 Earth MOID = 1.69164 au 
 Jupiter MOID = 1.50716 au 
 T_jup = 3.170 
[ show covariance matrix ]

Ephemeris | Orbit Diagram | Orbital Elements | Mission Design | Physical Parameters | Discovery Circumstances | Close-Approach Data ]

Physical Parameter Table
Parameter Symbol Value Units Sigma Reference Notes
absolute magnitude H 14.2   n/a MPO502470  
diameter diameter 5.786 km 0.129 urn:nasa:pds:neowise_diameters_albedos::2.0[mainbelt] (http://adsabs.harvard.edu/abs/2011ApJ...741...68M)  
geometric albedo albedo 0.121   0.015 urn:nasa:pds:neowise_diameters_albedos::2.0[mainbelt] (http://adsabs.harvard.edu/abs/2011ApJ...741...68M)  

47131 (1999 CA133)          Discovered 1999-Feb-07 by Spacewatch at Kitt Peak
Reference: 20020921/Numbers.arcLast Updated: 2004-04-19

[ show close-approach data ]
Alternate Designations
 1999 CA133 = 1994 HJ1 = 2000 HY60 
Ephemeris | Orbit Diagram | Orbital Elements | Mission Design | Physical Parameters | Discovery Circumstances | Close-Approach Data ]
ABOUT SSD CREDITS/AWARDS PRIVACY/COPYRIGHT GLOSSARY LINKS
FirstGov 2020-Jan-27 03:48 UT
(server date/time)  
NASA Home Page
Site Manager:   Ryan S. Park
Webmaster  Alan B. Chamberlin